Weather Roundup
Issued by NWS

Home | Current Version | Previous Version | Graphics & Text | Print | Product List | Glossary Off
Versions: 1 2 3 4 5 6 7 8 9 10 11 12 13 14 15 16 17 18 19 20 21 22 23 24 25 26 27 28 29 30 31 32 33 34 35 36 37 38 39 40 41 42 43 44 45 46 47 48 49 50

000
NZUS93 KARX 240759
HRRWXR

CURRENT HOURLY OBSERVATIONS ACROSS
MUCH OF THE UPPER MISSISSIPPI VALLEY
NATIONAL WEATHER SERVICE LA CROSSE WI
300 AM CDT SAT JUN 24 2017


...SOUTHEAST MINNESOTA...


CITY           SKY/WX    TMP DP  RH WIND       PRES   REMARKS
ROCHESTER      CLEAR     53  49  86 W9        29.97S
ROCHESTER/MAYO FAIR      56  48  72 W10       29.96S
WINONA         PTCLDY    59  52  77 CALM      29.94R
AUSTIN         PTCLDY    54  48  82 W7        29.98S
ALBERT LEA     MOCLDY    55  48  76 W7        30.00S
DODGE CENTER   CLEAR     54  46  76 W9        29.98R
PRESTON        CLEAR     54  48  81 W9        29.98R
OWATONNA       PTCLDY    54  48  82 W8        29.98S
FARIBAULT      PTCLDY    55  48  76 W10       29.98S
$$

...ELSEWHERE IN MINNESOTA...


CITY           SKY/WX    TMP DP  RH WIND       PRES   REMARKS
MINNEAPOLIS    MOCLDY    59  46  62 NW10      29.95S
INTNL FALLS    CLOUDY    53  50  89 W8        29.85S
DULUTH         CLOUDY    52  49  89 NW10      29.85S
RED WING       MOCLDY    57  48  72 W5        29.93S
REDWOOD FALLS  CLEAR     51  43  74 W9        30.03S
MANKATO        CLEAR     55  44  66 W13       30.00F
WORTHINGTON    CLEAR     50  42  74 W9        30.09S
FAIRMONT       CLEAR     53  44  71 NW10      30.05R
$$

...SOUTHWEST WISCONSIN...


CITY           SKY/WX    TMP DP  RH WIND       PRES   REMARKS
LA CROSSE      MOCLDY    65  52  62 NW13      29.92R
PRAIRIE DU CHI CLOUDY    61  51  70 NW7       29.95R
BOSCOBEL       PTCLDY    63  54  72 VRB6      29.93R
LONE ROCK      NOT AVBL
PLATTEVILLE    MOCLDY    61  56  84 W10       29.94S
FORT MC COY    CLOUDY    60  53  77 W7        29.92R
MAUSTON-NEW LI MOSUNNY   60  53  78 W8        29.88S
VIROQUA        PTSUNNY   59  53  79 NW13      29.93S
WIS DELLS      MOCLDY    58  53  81 W8        29.89S
$$

...ELSEWHERE IN WISCONSIN...


CITY           SKY/WX    TMP DP  RH WIND       PRES   REMARKS
MILWAUKEE      PTCLDY    64  54  69 W8        29.84S
MADISON        CLOUDY    61  55  81 W8        29.88R
GREEN BAY      MOCLDY    58  55  90 W9        29.80R
EAU CLAIRE     NOT AVBL
BLACK RVR FLS  CLOUDY    59  50  73 W7        29.91R
MEDFORD        CLOUDY    55  51  86 NW8       29.87R
WAUSAU         CLOUDY    57  53  86 NW12      29.83R
WIS RAPIDS     CLOUDY    59  53  80 W9        29.88R
MARSHFIELD     CLOUDY    58  53  84 NW10      29.86S
RICE LAKE      PTCLDY    55  48  76 W8        29.92S
$$

...NORTHEAST IOWA...


CITY           SKY/WX    TMP DP  RH WIND       PRES   REMARKS
WATERLOO       CLEAR     56  50  80 W7        30.00R
DUBUQUE        PTCLDY    59  52  77 NW15      29.95S
DECORAH        PTCLDY    57  52  82 NW5       29.96S
MASON CITY     PTCLDY    53  48  83 W12       30.03S
CHARLES CITY   PTCLDY    55  54  94 W8        30.00S
OELWEIN        PTCLDY    55  54  94 W10       30.00R
$$

...ELSEWHERE IN IOWA...


CITY           SKY/WX    TMP DP  RH WIND       PRES   REMARKS
DES MOINES     PTCLDY    57  50  77 W5        30.06R
IOWA CITY      CLEAR     63  52  67 NW12      30.00S
FORT DODGE     CLEAR     55  45  67 W3        30.07S
MARSHALLTOWN   CLEAR     54  51  90 W8        30.02S
CEDAR RAPIDS   CLEAR     57  54  89 NW10      29.98F
$$

...NORTHERN ILLINOIS...


CITY           SKY/WX    TMP DP  RH WIND       PRES   REMARKS
CHICAGO-OHARE  PTCLDY    64  55  72 W12       29.87S
CHICAGO-MIDWAY PTCLDY    65  55  70 W10       29.87S
MOLINE         PTCLDY    64  54  69 NW13G23   29.95S
ROCKFORD       CLEAR     62  55  77 NW8       29.91S
PEORIA         PTCLDY    62  56  80 W6        29.96R
$$

NOTE: "FAIR" INDICATES FEW OR NO CLOUDS BELOW 12,000 FEET WITH NO
SIGNIFICANT WEATHER AND/OR OBSTRUCTIONS TO VISIBILITY. WIND
SPEEDS ARE IN MILES-PER-HOUR.




USA.gov is the U.S. government's official web portal to all federal, state and local government web resources and services.